Current weather by "City, St" or "zip code"  
 

Current Conditions: Pine Ridge, Pine Ridge Airport, SD

Overcast


29.0 F

Last Updated on Oct 24 2020, 10:52 am MDT
Humidity: 75%
Wind Speed: SE 11.5 G 23.0 mph
Barometer 29.94 in
Dewpoint: 21.9 F
Visibility: 10.00 mi
Precip: --
Heat Index: NA
Wind Chill: 19 F
Current conditions at:

Pine Ridge, Pine Ridge Airport, SD (KIEN)

Lat: 43.02556 Lon: 102.52306

Local Radar Image active severe weather and emergency alerts image image weather storm and storm spotter reports image weather observation monitoring service image
Local
Radar
Active
Alerts
Storm Reports Obs
Monitoring

Sign-up For Email & Text Message Weather Alert Notification Services



Advertise Here

Observation History for Pine Ridge, Pine Ridge Airport, SD


Time Wind
(mph)
Vis
(mi)
Weather Precip (in) Temperature (F) Relative
Humidity
Wind
Chill
(F)
Heat
Index
(F)
Pressure
Air Dwpt altimeter
(in)
sea level
(mb)
Rmks
10:52 am MDT SE 11.5 G 23.0 10.00 Overcast -- 29.0 21.9 75% 19 NA 29.94 1017.1
9:52 am MDT S 12.7 G 24.2 10.00 Overcast -- 28.0 21.0 75% 17 NA 29.96 1017.7
8:52 am MDT S 10.4 G 23.0 10.00 Overcast -- 27.0 21.0 78% 17 NA 29.98 1018.5
7:52 am MDT S 16.1 G 23.0 10.00 Overcast -- 27.0 21.0 78% 15 NA 29.96 1018.1
6:52 am MDT S 10.4 G 20.7 10.00 Overcast -- 26.0 19.9 78% 16 NA 29.95 1017.7
5:52 am MDT S 15.0 G 23.0 10.00 Overcast -- 26.0 19.0 75% 14 NA 29.96 1017.8
4:52 am MDT SE 5.8 10.00 Overcast -- 25.0 18.0 75% 18 NA 29.98 1018.5
3:52 am MDT 4.6 10.00 Mostly Cloudy -- 25.0 18.0 75% 19 NA 29.99 1018.9
2:52 am MDT SE 8.1 10.00 Fair -- 23.0 17.1 78% 14 NA 30.00 1019.8
1:52 am MDT E 8.1 10.00 Fair -- 21.0 15.1 78% 11 NA 30.05 1021.5
12:52 am MDT E 6.9 10.00 Fair -- 24.0 16.0 71% 16 NA 30.07 1022.1
11:52 pm MDT SE 11.5 G 17.3 10.00 Fair -- 25.0 17.1 72% 14 NA 30.09 1023.0
10:52 pm MDT S 11.5 G 25.3 10.00 Fair -- 26.0 17.1 69% 15 NA 30.12 1023.9
9:52 pm MDT S 19.6 G 29.9 10.00 Fair -- 27.0 17.1 66% 14 NA 30.14 1024.5
8:52 pm MDT S 13.8 G 26.5 10.00 Fair -- 27.0 18.0 69% 16 NA 30.17 1025.7
7:52 pm MDT SE 6.9 10.00 Fair -- 25.0 18.0 75% 17 NA 30.20 1027.0
6:52 pm MDT S 6.9 10.00 A Few Clouds -- 26.0 19.0 75% 18 NA 30.25 1028.5
5:52 pm MDT S 10.4 10.00 Overcast -- 29.0 19.0 66% 20 NA 30.26 1028.7
4:52 pm MDT S 9.2 10.00 Overcast -- 29.0 19.0 66% 20 NA 30.32 1030.5
3:52 pm MDT S 10.4 10.00 Overcast -- 29.0 18.0 63% 20 NA 30.32 1030.8
2:52 pm MDT S 4.6 10.00 Overcast -- 27.0 18.0 69% 22 NA 30.34 1031.3
1:52 pm MDT 3.5 10.00 Overcast -- 26.0 17.1 69% NA NA 30.37 1032.4
12:52 pm MDT 4.6 10.00 Overcast -- 26.0 19.9 78% 20 NA 30.40 1033.5
11:52 am MDT N 0.0 10.00 Overcast -- 23.0 17.1 78% NA NA 30.45 1035.3

Regional Weather Observation


Chadron, Chadron Municipal Airport, NE (KCDR)

Overcast
30.0 F

Custer, Custer County Airport, SD (KCUT)

Overcast
23.0 F

Alliance, Alliance Municipal Airport, NE (KAIA)

Overcast
27.0 F

Rapid City, Rapid City Regional Airport, SD (KRAP)

Light Snow Fog/Mist
24.0 F

Ellsworth Air Force Base, SD (KRCA)

Light Snow Fog/Mist
24.0 F

Philip, Philip Airport, SD (KPHP)

Light Snow Fog/Mist
24.0 F